DAL452 KPHX-KLAS

Flight info

Callsign DAL452
Flight time 0h 47m
Altitude 28000
Route ZEPER2 RRSTA ELLDA RKSTR4
Aircraft A321/M-SDE3FGHIRWY/LB1

Departure

Time 2026-05-04 15:30
Airport Phoenix Sky Harbor International Airport (KPHX)

Arrival

Time 2026-05-04 16:18
Airport Harry Reid International Airport (KLAS)
Time Latitude Longitude Altitude Speed Heading
2026-05-04 14:34 33.43718 -111.99979 1136 ft 0 kts 90°
2026-05-04 15:19 33.43715 -112.00019 671 ft 4 kts 49°
2026-05-04 15:19 33.43695 -112.00032 476 ft 4 kts
2026-05-04 15:19 33.43680 -112.00033 429 ft 0 kts
2026-05-04 15:23 33.43690 -112.00033 373 ft 6 kts 360°
2026-05-04 15:24 33.43873 -112.00029 899 ft 14 kts 15°
2026-05-04 15:24 33.43907 -111.99841 1136 ft 15 kts 92°
2026-05-04 15:25 33.43906 -111.99689 1132 ft 19 kts 88°
2026-05-04 15:25 33.43904 -111.99538 1132 ft 18 kts 92°
2026-05-04 15:25 33.43905 -111.99395 1132 ft 17 kts 88°
2026-05-04 15:26 33.43755 -111.99236 1133 ft 15 kts 159°
2026-05-04 15:26 33.43658 -111.99228 1132 ft 14 kts 179°
2026-05-04 15:26 33.43402 -111.99229 1133 ft 23 kts 180°
2026-05-04 15:27 33.43251 -111.99235 1134 ft 18 kts 193°
2026-05-04 15:27 33.43204 -111.99269 1133 ft 0 kts 221°
2026-05-04 15:28 33.43118 -111.99352 1137 ft 8 kts 217°
2026-05-04 15:29 33.43104 -111.99409 1136 ft 3 kts 266°
2026-05-04 15:30 33.43105 -112.01731 1329 ft 184 kts 268°
2026-05-04 15:30 33.43182 -112.06487 3604 ft 199 kts 265°
2026-05-04 15:31 33.43268 -112.10144 4040 ft 239 kts 266°
2026-05-04 15:31 33.43319 -112.12134 4837 ft 240 kts 266°
2026-05-04 15:32 33.44057 -112.18079 7163 ft 261 kts 301°
2026-05-04 15:32 33.47452 -112.19767 8609 ft 286 kts 357°
2026-05-04 15:33 33.51456 -112.19688 10095 ft 289 kts 359°
2026-05-04 15:34 33.57784 -112.19919 11181 ft 335 kts 352°
2026-05-04 15:34 33.60182 -112.20165 11354 ft 355 kts 352°
2026-05-04 15:34 33.65105 -112.21258 12460 ft 364 kts 341°
2026-05-04 15:35 33.70042 -112.22880 13732 ft 371 kts 341°
2026-05-04 15:35 33.72550 -112.23686 14343 ft 375 kts 340°
2026-05-04 15:35 33.75080 -112.24495 14940 ft 378 kts 340°
2026-05-04 15:36 33.80215 -112.26134 16144 ft 384 kts 340°
2026-05-04 15:36 33.82811 -112.26968 16731 ft 387 kts 339°
2026-05-04 15:36 33.85422 -112.27811 17314 ft 390 kts 339°
2026-05-04 15:37 33.88043 -112.28660 17859 ft 393 kts 339°
2026-05-04 15:37 33.90695 -112.29521 18397 ft 395 kts 338°
2026-05-04 15:37 33.93357 -112.30384 18922 ft 398 kts 338°
2026-05-04 15:37 33.96037 -112.31254 19416 ft 400 kts 338°
2026-05-04 15:38 33.98733 -112.32130 19902 ft 403 kts 338°
2026-05-04 15:38 34.01360 -112.33137 20370 ft 399 kts 330°
2026-05-04 15:38 34.03800 -112.34653 20802 ft 392 kts 320°
2026-05-04 15:38 34.05964 -112.36623 21222 ft 388 kts 313°
2026-05-04 15:39 34.08032 -112.38726 21628 ft 390 kts 313°
2026-05-04 15:39 34.10114 -112.40834 22032 ft 392 kts 313°
2026-05-04 15:39 34.14325 -112.45070 22828 ft 396 kts 313°
2026-05-04 15:40 34.16445 -112.47200 23194 ft 398 kts 313°
2026-05-04 15:40 34.18573 -112.49339 23588 ft 398 kts 313°
2026-05-04 15:40 34.20710 -112.51485 23975 ft 400 kts 313°
2026-05-04 15:40 34.22848 -112.53632 24449 ft 399 kts 313°
2026-05-04 15:41 34.24966 -112.55761 25135 ft 394 kts 312°
2026-05-04 15:41 34.27041 -112.57852 25670 ft 393 kts 312°
2026-05-04 15:41 34.29137 -112.59971 26124 ft 393 kts 311°
2026-05-04 15:41 34.31239 -112.62102 26520 ft 394 kts 311°
2026-05-04 15:42 34.33339 -112.64236 26929 ft 395 kts 311°
2026-05-04 15:42 34.35445 -112.66377 27359 ft 396 kts 311°
2026-05-04 15:42 34.37558 -112.68518 27768 ft 396 kts 311°
2026-05-04 15:42 34.39672 -112.70659 28009 ft 396 kts 311°
2026-05-04 15:43 34.41761 -112.72768 28051 ft 384 kts 311°
2026-05-04 15:43 34.45797 -112.76855 28056 ft 375 kts 310°
2026-05-04 15:44 34.49881 -112.81051 28063 ft 396 kts 312°
2026-05-04 15:44 34.52013 -112.83246 28061 ft 407 kts 311°
2026-05-04 15:44 34.54201 -112.85491 28059 ft 417 kts 311°
2026-05-04 15:45 34.58749 -112.90131 28056 ft 435 kts 311°
2026-05-04 15:45 34.63441 -112.94901 28056 ft 443 kts 311°
2026-05-04 15:46 34.68185 -112.99732 28058 ft 446 kts 311°
2026-05-04 15:46 34.72903 -113.04564 28058 ft 447 kts 311°
2026-05-04 15:47 34.77534 -113.09584 28058 ft 443 kts 308°
2026-05-04 15:47 34.81809 -113.14951 28056 ft 440 kts 305°
2026-05-04 15:48 34.85961 -113.20439 28064 ft 440 kts 305°
2026-05-04 15:48 34.92279 -113.28595 28066 ft 442 kts 306°
2026-05-04 15:49 34.96542 -113.34002 28067 ft 443 kts 306°
2026-05-04 15:49 35.01013 -113.39205 28077 ft 449 kts 312°
2026-05-04 15:50 35.05842 -113.44052 28080 ft 449 kts 312°
2026-05-04 15:50 35.10629 -113.48866 28078 ft 448 kts 312°
2026-05-04 15:51 35.15394 -113.53655 28047 ft 428 kts 312°
2026-05-04 15:51 35.17648 -113.55904 28014 ft 410 kts 312°
2026-05-04 15:51 35.19827 -113.58084 27758 ft 398 kts 311°
2026-05-04 15:52 35.21930 -113.60206 27508 ft 386 kts 311°
2026-05-04 15:52 35.23967 -113.62271 27258 ft 375 kts 311°
2026-05-04 15:52 35.25947 -113.64284 27006 ft 366 kts 311°
2026-05-04 15:52 35.27878 -113.66248 26683 ft 358 kts 311°
2026-05-04 15:53 35.29779 -113.68181 26265 ft 353 kts 310°
2026-05-04 15:53 35.31654 -113.70090 25817 ft 348 kts 311°
2026-05-04 15:53 35.33507 -113.71978 25381 ft 344 kts 311°
2026-05-04 15:53 35.35334 -113.73843 24920 ft 341 kts 311°
2026-05-04 15:54 35.37152 -113.75699 24462 ft 340 kts 311°
2026-05-04 15:54 35.38965 -113.77543 24043 ft 337 kts 312°
2026-05-04 15:54 35.40763 -113.79367 23628 ft 335 kts 312°
2026-05-04 15:54 35.42551 -113.81182 23211 ft 333 kts 312°
2026-05-04 15:55 35.43729 -113.82381 22938 ft 332 kts 311°
2026-05-04 15:55 35.45498 -113.84186 22517 ft 330 kts 311°
2026-05-04 15:55 35.47826 -113.86563 21977 ft 328 kts 311°
2026-05-04 15:55 35.49585 -113.88362 21556 ft 328 kts 311°
2026-05-04 15:56 35.51332 -113.90150 21133 ft 327 kts 311°
2026-05-04 15:56 35.53072 -113.91929 20720 ft 326 kts 311°
2026-05-04 15:56 35.54226 -113.93110 20433 ft 325 kts 311°
2026-05-04 15:56 35.55980 -113.94906 20017 ft 324 kts 311°
2026-05-04 15:57 35.57685 -113.96655 19611 ft 323 kts 311°
2026-05-04 15:57 35.59428 -113.98450 19199 ft 340 kts 311°
2026-05-04 15:57 35.61286 -114.00381 18739 ft 355 kts 312°
2026-05-04 15:57 35.63185 -114.02336 18278 ft 358 kts 313°
2026-05-04 15:58 35.65100 -114.04292 17832 ft 357 kts 313°
2026-05-04 15:58 35.67013 -114.06240 17414 ft 357 kts 313°
2026-05-04 15:58 35.68919 -114.08184 16967 ft 355 kts 314°
2026-05-04 15:58 35.70844 -114.10156 16525 ft 367 kts 317°
2026-05-04 15:59 35.72816 -114.12178 16175 ft 370 kts 314°
2026-05-04 15:59 35.74779 -114.14211 16086 ft 365 kts 310°
2026-05-04 15:59 35.76387 -114.16524 15861 ft 349 kts 296°
2026-05-04 15:59 35.77547 -114.19061 15360 ft 343 kts 292°
2026-05-04 16:00 35.78678 -114.21641 14907 ft 341 kts 292°
2026-05-04 16:00 35.79804 -114.24208 14468 ft 341 kts 292°
2026-05-04 16:00 35.80929 -114.26772 14027 ft 341 kts 292°
2026-05-04 16:00 35.82066 -114.29334 13592 ft 342 kts 295°
2026-05-04 16:01 35.83601 -114.31617 13135 ft 352 kts 315°
2026-05-04 16:01 35.85745 -114.33142 12669 ft 362 kts 337°
2026-05-04 16:01 35.88241 -114.33650 12191 ft 366 kts 355°
2026-05-04 16:01 35.90782 -114.33745 11706 ft 365 kts 356°
2026-05-04 16:02 35.93313 -114.33833 11231 ft 364 kts 356°
2026-05-04 16:02 35.95842 -114.33927 10849 ft 359 kts 356°
2026-05-04 16:02 36.00772 -114.34113 10357 ft 352 kts 357°
2026-05-04 16:03 36.03175 -114.34211 10111 ft 349 kts 357°
2026-05-04 16:03 36.05597 -114.34311 9926 ft 345 kts 357°
2026-05-04 16:03 36.07919 -114.34411 10008 ft 325 kts 357°
2026-05-04 16:03 36.10110 -114.34752 10008 ft 313 kts 343°
2026-05-04 16:04 36.12119 -114.35703 10007 ft 308 kts 328°
2026-05-04 16:04 36.15402 -114.38990 10013 ft 303 kts 313°
2026-05-04 16:04 36.16929 -114.40789 10012 ft 303 kts 312°
2026-05-04 16:05 36.18262 -114.42778 10010 ft 298 kts 297°
2026-05-04 16:05 36.19131 -114.45080 9974 ft 294 kts 283°
2026-05-04 16:05 36.19585 -114.50004 9769 ft 288 kts 268°
2026-05-04 16:06 36.19672 -114.52479 9675 ft 288 kts 268°
2026-05-04 16:06 36.19914 -114.59059 9423 ft 287 kts 268°
2026-05-04 16:07 36.20038 -114.62328 9297 ft 287 kts 269°
2026-05-04 16:07 36.18875 -114.69403 8517 ft 278 kts 248°
2026-05-04 16:08 36.18264 -114.71669 8178 ft 277 kts 250°
2026-05-04 16:08 36.19269 -114.77342 7671 ft 274 kts 298°
2026-05-04 16:09 36.21219 -114.81013 7448 ft 245 kts 297°
2026-05-04 16:09 36.23064 -114.84549 7191 ft 244 kts 297°
2026-05-04 16:10 36.24898 -114.88055 6581 ft 241 kts 297°
2026-05-04 16:11 36.27604 -114.93235 5927 ft 237 kts 297°
2026-05-04 16:11 36.28487 -114.94930 5926 ft 238 kts 297°
2026-05-04 16:12 36.29460 -115.00384 5919 ft 203 kts 242°
2026-05-04 16:12 36.26628 -115.03701 5720 ft 186 kts 212°
2026-05-04 16:13 36.24581 -115.05471 5494 ft 176 kts 213°
2026-05-04 16:13 36.22636 -115.07231 5012 ft 173 kts 214°
2026-05-04 16:14 36.20746 -115.08949 4566 ft 158 kts 214°
2026-05-04 16:14 36.18978 -115.10477 4174 ft 152 kts 204°
2026-05-04 16:15 36.16118 -115.12106 3509 ft 146 kts 203°
2026-05-04 16:16 36.14312 -115.13144 3097 ft 143 kts 204°
2026-05-04 16:16 36.11554 -115.14717 2488 ft 145 kts 205°
2026-05-04 16:17 36.09690 -115.15802 2136 ft 150 kts 206°
2026-05-04 16:18 36.08086 -115.16711 2146 ft 23 kts 195°
2026-05-04 16:18 36.07957 -115.16719 2151 ft 12 kts 173°
2026-05-04 16:19 36.07806 -115.16442 2154 ft 21 kts 92°
2026-05-04 16:19 36.07798 -115.16069 2147 ft 23 kts 88°
2026-05-04 16:20 36.07805 -115.15425 2132 ft 28 kts 90°
2026-05-04 16:20 36.07790 -115.14902 2114 ft 33 kts 95°
2026-05-04 16:21 36.07834 -115.14435 2100 ft 24 kts 94°
2026-05-04 16:22 36.07843 -115.13971 2082 ft 30 kts 69°
2026-05-04 16:22 36.08077 -115.13689 2075 ft 4 kts 45°
2026-05-04 16:23 36.08083 -115.13682 2074 ft 0 kts 45°